Location: Worth Mountain WMA
(34.9569°N, 81.4819°W)
Time: 23:37:12
(UTC-04:00)

Amateur Radio Satellites - All Passes

Search period start: 30 July 2016 23:07
Search period end: 31 July 2016 23:07
Location: Worth Mountain WMA, 34.9569°N, 81.4819°W

Satellite Date Start Highest point End Downlink Frequencies (MHz)
Time Altitude Azimuth
PRISM 30 Jul 23:15:45 23:18:05 15° 293° (WNW) 23:20:25 437.425
Cosmos 2504 30 Jul 23:22:24 23:30:02 53° 270° (W) 23:37:09 435.465 / 435.565
50 SAT 30 Jul 23:24:43 23:26:05 12° 68° (ENE) 23:27:26 437.505
AISAT 30 Jul 23:26:57 23:29:42 17° 67° (ENE) 23:32:28 437.250
AO-85 30 Jul 23:33:56 23:37:46 34° 248° (WSW) 23:41:21 145.980
Cosmos 2491 30 Jul 23:37:44 23:44:48 27° 288° (WNW) 23:51:55 435.465 / 435.565
JUGNU 30 Jul 23:40:32 23:41:29 10° 164° (SSE) 23:42:26 437.505
TIGRISAT 30 Jul 23:40:49 23:45:24 71° 102° (ESE) 23:49:50 435.000
SPROUT 30 Jul 23:45:31 23:46:18 10° 65° (ENE) 23:47:06 437.525
UNISAT 6 30 Jul 23:58:37 00:03:11 67° 284° (WNW) 00:07:36 437.425
CUBEBUG 1 31 Jul 00:06:38 00:10:47 51° 74° (ENE) 00:14:59 437.445
HUMSAT D 31 Jul 00:13:00 00:14:55 13° 268° (W) 00:16:51 437.325/437.525
VELOX 1 31 Jul 00:16:10 00:20:27 58° 75° (ENE) 00:24:46 145.980
NANOSAT C BR1 31 Jul 00:16:36 00:20:02 23° 96° (E) 00:23:27 145.865
ESTCUBE 1 31 Jul 00:16:54 00:21:23 76° 258° (WSW) 00:25:53 437.505/2401.250
DUCHIFAT 1 31 Jul 00:18:50 00:22:15 23° 96° (E) 00:25:38 145.980
ANTELSAT 31 Jul 00:37:36 00:41:20 25° 290° (WNW) 00:45:00 437.575/2403.000
QB50P1 31 Jul 00:40:54 00:45:05 49° 100° (E) 00:49:11 145.935-145.965
JAS-2 31 Jul 00:41:19 00:44:57 17° 95° (E) 00:48:48 435.910
DX 1 31 Jul 00:46:26 00:50:46 86° 259° (WSW) 00:55:07 434.975-435.025
POPSAT HIP 1 31 Jul 00:47:42 00:51:57 59° 101° (E) 00:56:09 437.405
UKube-1 31 Jul 00:52:13 00:56:30 86° 76° (ENE) 01:00:49 .
50 SAT 31 Jul 00:55:58 00:59:21 35° 262° (W) 01:02:43 437.505
AISAT 31 Jul 01:01:47 01:05:50 37° 261° (W) 01:09:56 437.250
AIST 1 31 Jul 01:02:21 01:06:43 84° 264° (W) 01:11:06
QB50P2 31 Jul 01:09:43 01:14:00 67° 284° (WNW) 01:18:13 145.880/145.840
POLYITAN 1 31 Jul 01:12:22 01:16:38 65° 285° (WNW) 01:20:51 437.675
SPROUT 31 Jul 01:17:30 01:21:42 58° 260° (W) 01:25:57 437.525
JUGNU 31 Jul 01:25:59 01:29:45 17° 174° (S) 01:33:31 437.505
CUBEBUG 1 31 Jul 01:46:11 01:47:20 11° 268° (W) 01:48:29 437.445
BUGSAT 1 31 Jul 01:50:51 01:55:04 63° 285° (WNW) 01:59:15 437.445
NANOSAT C BR1 31 Jul 01:52:13 01:55:39 24° 290° (WNW) 01:59:03 145.865
DUCHIFAT 1 31 Jul 01:54:23 01:57:50 24° 290° (WNW) 02:01:15 145.980
TISAT 1 31 Jul 01:57:31 02:01:42 87° 77° (ENE) 02:05:57 437.305
ISS 31 Jul 02:04:29 02:05:42 12° 26° (NNE) 02:06:53 145.825
SRMSAT 31 Jul 02:04:45 02:06:09 11° 165° (SSE) 02:07:35 437.500
Cosmos 2499 31 Jul 02:10:07 02:15:37 21° 69° (ENE) 02:20:52 435.465 / 435.565
QB50P1 31 Jul 02:18:39 02:20:21 12° 294° (WNW) 02:22:03 145.935-145.965
SWISSCUBE 31 Jul 02:21:36 02:25:48 31° 70° (ENE) 02:30:00 437.505
GONETS M04 31 Jul 02:24:15 02:32:36 44° 77° (ENE) 02:40:53
JAS-2 31 Jul 02:24:53 02:30:11 52° 286° (WNW) 02:36:01 435.910
BEESAT 3 31 Jul 02:26:08 02:28:43 16° 51° (NE) 02:31:17 437.485
POPSAT HIP 1 31 Jul 02:26:32 02:27:10 10° 295° (WNW) 02:27:48 437.405
BEESAT 2 31 Jul 02:41:16 02:43:13 13° 49° (NE) 02:45:09 435.950
BEESAT 31 Jul 02:42:03 02:46:36 46° 73° (ENE) 02:51:11 436.000
CUSAT 1 31 Jul 02:58:09 02:59:29 12° 95° (E) 03:00:44 437.405
Oscar 19 31 Jul 03:03:02 03:08:14 81° 285° (WNW) 03:13:26 437.125/150
ITUPSAT 1 31 Jul 03:07:45 03:12:33 87° 82° (E) 03:17:23 437.325
ITAMSAT 1 31 Jul 03:09:38 03:12:12 14° 93° (E) 03:14:44 435.822/435.867
JUGNU 31 Jul 03:14:10 03:18:03 18° 184° (S) 03:21:56 437.505
Gurwin Techsat 1B 31 Jul 03:17:49 03:23:05 60° 101° (E) 03:28:19 435.225
KKS-1 31 Jul 03:20:07 03:21:34 11° 65° (ENE) 03:23:02 437.445
ISS 31 Jul 03:39:19 03:42:34 82° 43° (NE) 03:45:49 145.825
STARS 31 Jul 03:47:23 03:48:32 11° 64° (ENE) 03:49:41 437.465
SRMSAT 31 Jul 03:50:49 03:54:34 17° 175° (S) 03:58:19 437.500
DANDE 31 Jul 03:57:41 04:02:20 29° 97° (E) 04:06:00 436.750
SWISSCUBE 31 Jul 03:59:48 04:03:33 23° 264° (W) 04:07:20 437.505
Cosmos 2499 31 Jul 04:01:51 04:09:17 59° 269° (W) 04:16:15 435.465 / 435.565
BEESAT 3 31 Jul 04:02:51 04:06:30 36° 246° (WSW) 04:10:08 437.485
PCSat 31 Jul 04:11:03 04:16:10 41° 58° (ENE) 04:21:14 145.827
BEESAT 2 31 Jul 04:17:26 04:21:20 51° 244° (WSW) 04:25:11 435.950
GONETS M04 31 Jul 04:21:25 04:29:07 36° 274° (W) 04:36:51
BEESAT 31 Jul 04:21:50 04:24:35 15° 267° (W) 04:27:20 436.000
MOZHAYETS 4 31 Jul 04:22:07 04:26:41 65° 76° (ENE) 04:31:17
CUSAT 1 31 Jul 04:38:11 04:41:22 24° 279° (W) 04:44:02 437.405
AO-7 31 Jul 04:42:06 04:50:07 49° 102° (ESE) 04:58:03 29.400- 29.500
ITAMSAT 1 31 Jul 04:46:54 04:51:59 58° 287° (WNW) 04:57:02 435.822/435.867
KKS-1 31 Jul 04:53:15 04:57:35 58° 259° (W) 05:02:00 437.445
Gurwin Techsat 1B 31 Jul 04:59:32 05:02:29 15° 296° (WNW) 05:05:25 435.225
JUGNU 31 Jul 05:04:17 05:06:19 12° 194° (SSW) 05:08:21 437.505
RS-15 31 Jul 05:09:38 05:17:47 23° 100° (E) 05:26:11 29.354- 29.394
AIST 2 31 Jul 05:16:53 05:20:28 27° 54° (NE) 05:24:02 435.215
STARS 31 Jul 05:20:00 05:24:19 60° 259° (W) 05:28:42 437.465
SRMSAT 31 Jul 05:39:15 05:43:01 17° 185° (S) 05:46:47 437.500
DANDE 31 Jul 05:41:09 05:44:55 20° 280° (W) 05:48:03 436.750
CUBESAT XI-V 31 Jul 05:53:17 05:57:52 72° 76° (ENE) 06:02:28 437.345
PCSat 31 Jul 05:55:05 05:59:15 23° 254° (WSW) 06:03:25 145.827
O/OREOS (USA 219) 31 Jul 06:10:39 06:14:53 37° 66° (ENE) 06:19:07 437.305
HORYU 2 31 Jul 06:11:20 06:15:44 56° 101° (E) 06:20:05 437.375
SO-50 31 Jul 06:30:16 06:33:15 16° 108° (ESE) 06:36:15 436.795
NOAA 18 31 Jul 06:32:25 06:35:10 14° 92° (E) 06:37:55 137.9125
AO-7 31 Jul 06:35:18 06:42:33 34° 298° (WNW) 06:49:44 29.400- 29.500
Cubesat XI-IV 31 Jul 06:36:32 06:39:38 16° 93° (E) 06:42:44 437.490
BRITE-PL 31 Jul 06:48:21 06:53:09 41° 99° (E) 06:58:16 437.365/2234.400
AIST 2 31 Jul 06:55:30 06:58:48 23° 249° (WSW) 07:02:05 435.215
CUTE-I 31 Jul 06:57:40 07:02:05 26° 96° (E) 07:06:28 437.470
DOVE 4 31 Jul 07:01:58 07:03:18 11° 90° (E) 07:04:39 437.250
NOAA 15 31 Jul 07:02:50 07:07:46 40° 99° (E) 07:12:42 137.62
LilacSat-2 31 Jul 07:07:29 07:10:51 29° 97° (E) 07:14:11 437.200
RS-15 31 Jul 07:17:18 07:28:42 81° 300° (WNW) 07:40:49 29.354- 29.394
GOMX 1 31 Jul 07:27:55 07:33:00 48° 99° (E) 07:38:15 467.674
SRMSAT 31 Jul 07:29:51 07:31:25 11° 195° (SSW) 07:33:01 437.500
STRAND 1 31 Jul 07:31:32 07:36:24 46° 72° (ENE) 07:41:19 437.568
HORYU 2 31 Jul 07:50:06 07:51:46 12° 295° (WNW) 07:53:24 437.375
O/OREOS (USA 219) 31 Jul 07:51:02 07:53:56 17° 260° (W) 07:56:50 437.305
Cosmos 2491 31 Jul 07:54:31 08:01:10 23° 70° (ENE) 08:07:46 435.465 / 435.565
SO-50 31 Jul 08:08:35 08:13:19 50° 303° (WNW) 08:18:03 436.795
NOAA 18 31 Jul 08:10:44 08:16:12 64° 287° (WNW) 08:21:38 137.9125
Cubesat XI-IV 31 Jul 08:14:47 08:20:00 54° 287° (WNW) 08:25:09 437.490
CINEMA 3 31 Jul 08:16:29 08:19:56 19° 93° (E) 08:23:20 145.822/145.860
CANX-2 31 Jul 08:18:47 08:21:01 14° 93° (E) 08:23:15 2200.000
PRISM 31 Jul 08:26:30 08:29:11 17° 68° (ENE) 08:31:53 437.425
BRITE-PL 31 Jul 08:27:38 08:31:21 21° 291° (WNW) 08:35:16 437.365/2234.400
CUTE 1.7 + AOD 2 31 Jul 08:30:49 08:33:36 17° 94° (E) 08:36:22 437.475
DOVE 4 31 Jul 08:36:08 08:41:23 76° 284° (WNW) 08:46:41 437.250
CUTE-I 31 Jul 08:37:23 08:42:05 33° 291° (WNW) 08:46:47 437.470
LilacSat-2 31 Jul 08:42:33 08:44:53 16° 291° (WNW) 08:47:13 437.200
NOAA 15 31 Jul 08:43:17 08:47:15 22° 293° (WNW) 08:51:13 137.62
CUBEBUG 2 31 Jul 08:54:48 08:56:26 12° 91° (E) 08:58:03 437.445
SEEDS 31 Jul 09:00:59 09:04:32 27° 96° (E) 09:08:04 437.485
COMPASS 1 31 Jul 09:04:38 09:07:42 20° 95° (E) 09:10:45 437.405
GOMX 1 31 Jul 09:07:04 09:10:42 19° 292° (WNW) 09:14:24 467.674
HO-68 31 Jul 09:08:25 09:15:27 54° 101° (ESE) 09:22:25 435.675
STRAND 1 31 Jul 09:12:23 09:15:45 18° 266° (W) 09:19:09 437.568
YUBILEINY 31 Jul 09:16:20 09:24:10 38° 87° (E) 09:32:02 435.215
AAUSAT CUBESAT 2 31 Jul 09:27:55 09:31:32 30° 97° (E) 09:35:10 437.432
RS-15 31 Jul 09:34:19 09:43:24 25° 325° (NW) 09:52:52 29.354- 29.394
FUNcube-1 31 Jul 09:44:53 09:47:42 17° 93° (E) 09:50:28 145.935
ZACube-1 31 Jul 09:48:04 09:51:18 20° 94° (E) 09:54:27 437.345
Cosmos 2491 31 Jul 09:49:57 09:58:36 66° 268° (W) 10:07:16 435.465 / 435.565
CINEMA 3 31 Jul 09:52:29 09:57:11 41° 288° (WNW) 10:01:46 145.822/145.860
CANX-2 31 Jul 09:53:06 09:57:00 37° 287° (WNW) 10:00:52 2200.000
UWE-3 31 Jul 09:57:07 10:01:24 41° 98° (E) 10:05:33 435.000/436.395/437.385
ANTELSAT 31 Jul 09:57:08 10:00:05 17° 67° (ENE) 10:03:02 437.575/2403.000
PRISM 31 Jul 10:00:40 10:04:14 30° 262° (W) 10:07:50 437.425
Cosmos 2504 31 Jul 10:03:27 10:10:16 26° 83° (E) 10:17:02 435.465 / 435.565
CUTE 1.7 + AOD 2 31 Jul 10:05:45 10:09:28 31° 288° (WNW) 10:13:10 437.475
Oscar 11 31 Jul 10:19:49 10:23:59 48° 99° (E) 10:28:08 145.826/435.025
M-CUBED/EXP-1 PRIME 31 Jul 10:27:07 10:29:02 12° 96° (E) 10:30:56 437.505
CUBEBUG 2 31 Jul 10:28:50 10:33:23 54° 285° (WNW) 10:37:47 437.445
TIGRISAT 31 Jul 10:35:46 10:40:07 41° 73° (ENE) 10:44:31 435.000
SEEDS 31 Jul 10:37:01 10:40:02 20° 290° (WNW) 10:43:03 437.485
COMPASS 1 31 Jul 10:39:47 10:43:12 26° 289° (WNW) 10:46:36 437.405
DELFI C3 31 Jul 10:47:00 10:50:43 39° 99° (E) 10:54:25 145.870
AUBIESAT-1 31 Jul 10:48:09 10:51:14 17° 98° (E) 10:54:14 437.475
UNISAT 6 31 Jul 10:53:24 10:58:01 70° 76° (ENE) 11:02:42 437.425
HO-68 31 Jul 10:57:00 11:02:41 26° 297° (WNW) 11:08:21 435.675
AAUSAT CUBESAT 2 31 Jul 11:04:02 11:06:47 18° 291° (WNW) 11:09:31 437.432
NANOSAT C BR1 31 Jul 11:07:15 11:08:55 12° 66° (ENE) 11:10:35 145.865
DUCHIFAT 1 31 Jul 11:09:20 11:10:53 12° 66° (ENE) 11:12:28 145.980
YUBILEINY 31 Jul 11:12:38 11:20:46 41° 284° (WNW) 11:29:00 435.215
FUNcube-1 31 Jul 11:20:01 11:24:02 35° 288° (WNW) 11:27:57 145.935
ZACube-1 31 Jul 11:23:43 11:27:35 30° 289° (WNW) 11:31:21 437.345
QB50P1 31 Jul 11:30:28 11:33:53 24° 70° (ENE) 11:37:20 145.935-145.965
ANTELSAT 31 Jul 11:31:58 11:36:23 43° 262° (W) 11:40:52 437.575/2403.000
UWE-3 31 Jul 11:34:44 11:37:28 16° 293° (WNW) 11:40:08 435.000/436.395/437.385
POPSAT HIP 1 31 Jul 11:37:08 11:40:46 28° 71° (ENE) 11:44:27 437.405
Cosmos 2504 31 Jul 11:54:11 12:02:56 63° 279° (W) 12:11:40 435.465 / 435.565
HUMSAT D 31 Jul 11:57:07 12:01:13 59° 285° (WNW) 12:05:14 437.325/437.525
RS-15 31 Jul 11:57:15 12:02:37 13° 2° (N) 12:08:01 29.354- 29.394
Oscar 11 31 Jul 11:57:48 11:59:40 13° 294° (WNW) 12:01:31 145.826/435.025
QB50P2 31 Jul 11:58:41 12:02:51 57° 75° (ENE) 12:07:03 145.880/145.840
M-CUBED/EXP-1 PRIME 31 Jul 11:59:10 12:03:50 59° 290° (WNW) 12:08:22 437.505
CUBEBUG 1 31 Jul 12:00:17 12:02:11 12° 93° (E) 12:04:04 437.445
POLYITAN 1 31 Jul 12:01:18 12:05:28 58° 75° (ENE) 12:09:42 437.675
AO-85 31 Jul 12:05:04 12:08:27 17° 108° (ESE) 12:11:46 145.980
VELOX 1 31 Jul 12:11:00 12:13:25 14° 93° (E) 12:15:49 145.980
ESTCUBE 1 31 Jul 12:13:02 12:16:55 28° 97° (E) 12:20:48 437.505/2401.250
TIGRISAT 31 Jul 12:14:00 12:16:56 16° 267° (W) 12:19:54 435.000
AUBIESAT-1 31 Jul 12:21:25 12:25:46 41° 292° (WNW) 12:30:01 437.475
DELFI C3 31 Jul 12:23:30 12:25:11 12° 293° (WNW) 12:26:52 145.870
50 SAT 31 Jul 12:28:05 12:30:51 21° 96° (E) 12:33:35 437.505
JAS-2 31 Jul 12:34:00 12:39:33 43° 72° (ENE) 12:44:38 435.910
BUGSAT 1 31 Jul 12:36:59 12:40:58 54° 75° (ENE) 12:45:02 437.445
DX 1 31 Jul 12:38:37 12:41:56 21° 96° (E) 12:45:14 434.975-435.025
NANOSAT C BR1 31 Jul 12:40:04 12:44:10 49° 260° (W) 12:48:19 145.865
Oscar 19 31 Jul 12:41:40 12:43:01 11° 62° (ENE) 12:44:22 437.125/150
DUCHIFAT 1 31 Jul 12:42:00 12:46:06 50° 260° (W) 12:50:14 145.980
UKube-1 31 Jul 12:43:33 12:46:33 18° 95° (E) 12:49:33 .
AISAT 31 Jul 12:54:45 12:59:07 50° 100° (E) 13:03:27 437.250
QB50P1 31 Jul 13:06:10 13:09:33 23° 264° (W) 13:12:58 145.935-145.965
SPROUT 31 Jul 13:06:58 13:10:45 29° 97° (E) 13:14:30 437.525
POPSAT HIP 1 31 Jul 13:13:25 13:16:31 20° 265° (W) 13:19:39 437.405
AIST 1 31 Jul 13:28:00 13:32:11 67° 95° (E) 13:36:26
CUBEBUG 1 31 Jul 13:34:25 13:38:40 48° 286° (WNW) 13:42:55 437.445
AO-85 31 Jul 13:43:13 13:48:32 58° 301° (WNW) 13:53:39 145.980
TISAT 1 31 Jul 13:45:47 13:48:36 17° 94° (E) 13:51:24 437.305
VELOX 1 31 Jul 13:45:49 13:50:02 42° 287° (WNW) 13:54:13 145.980
ESTCUBE 1 31 Jul 13:50:05 13:53:33 22° 291° (WNW) 13:57:00 437.505/2401.250
50 SAT 31 Jul 14:01:47 14:04:19 18° 290° (WNW) 14:06:51 437.505
RS-15 31 Jul 14:11:27 14:21:33 28° 38° (NE) 14:31:33 29.354- 29.394
PHONESAT 2.4 31 Jul 14:12:19 14:14:07 15° 144° (SE) 14:15:56 2401.200-2431.200
DX 1 31 Jul 14:14:19 14:18:04 28° 290° (WNW) 14:21:50 434.975-435.025
Oscar 19 31 Jul 14:16:31 14:21:37 78° 257° (WSW) 14:26:46 437.125/150
UKube-1 31 Jul 14:18:46 14:22:36 32° 289° (WNW) 14:26:27 .
JAS-2 31 Jul 14:20:21 14:24:42 21° 264° (W) 14:28:48 435.910
ITAMSAT 1 31 Jul 14:24:22 14:27:36 17° 65° (ENE) 14:30:48 435.822/435.867
AISAT 31 Jul 14:33:00 14:35:07 13° 294° (WNW) 14:37:13 437.250
Gurwin Techsat 1B 31 Jul 14:35:31 14:40:47 69° 74° (ENE) 14:46:05 435.225
Cosmos 2499 31 Jul 14:42:06 14:48:21 22° 82° (E) 14:54:29 435.465 / 435.565
SPROUT 31 Jul 14:43:19 14:46:28 20° 291° (WNW) 14:49:36 437.525
BEESAT 31 Jul 14:46:49 14:49:34 15° 93° (E) 14:52:18 436.000
CUSAT 1 31 Jul 15:11:23 15:14:52 74° 262° (W) 15:19:27 437.405
ITUPSAT 1 31 Jul 15:12:02 15:16:09 28° 97° (E) 15:20:13 437.325
TISAT 1 31 Jul 15:20:28 15:24:17 32° 288° (WNW) 15:28:04 437.305
GONETS M04 31 Jul 15:20:50 15:29:13 56° 90° (E) 15:37:38
AO-7 31 Jul 15:37:14 15:45:12 51° 66° (ENE) 15:53:10 29.400- 29.500
PHONESAT 2.4 31 Jul 15:47:14 15:50:18 84° 337° (NNW) 15:53:22 2401.200-2431.200
ITAMSAT 1 31 Jul 16:01:30 16:06:35 53° 259° (W) 16:11:42 435.822/435.867
SWISSCUBE 31 Jul 16:02:02 16:06:45 69° 286° (WNW) 16:11:27 437.505
Gurwin Techsat 1B 31 Jul 16:19:17 16:21:09 12° 269° (W) 16:23:02 435.225
DANDE 31 Jul 16:20:44 16:23:13 26° 263° (W) 16:26:10 436.750
MOZHAYETS 4 31 Jul 16:21:24 16:24:40 19° 94° (E) 16:27:54
BEESAT 31 Jul 16:23:00 16:27:32 45° 287° (WNW) 16:32:02 436.000
RS-15 31 Jul 16:23:30 16:35:57 88° 62° (ENE) 16:48:07 29.354- 29.394
Cosmos 2499 31 Jul 16:31:48 16:40:39 71° 278° (W) 16:49:17 435.465 / 435.565
SO-50 31 Jul 16:43:13 16:47:46 58° 58° (ENE) 16:52:11 436.795
KKS-1 31 Jul 16:47:34 16:51:39 33° 98° (E) 16:55:42 437.445
ITUPSAT 1 31 Jul 16:49:58 16:53:49 25° 291° (WNW) 16:57:39 437.325
HORYU 2 31 Jul 17:06:06 17:10:09 34° 71° (ENE) 17:14:12 437.375
STARS 31 Jul 17:12:53 17:16:50 31° 98° (E) 17:20:44 437.465
GONETS M04 31 Jul 17:19:19 17:26:23 27° 288° (WNW) 17:33:32
PHONESAT 2.4 31 Jul 17:24:17 17:27:01 29° 353° (N) 17:29:47 2401.200-2431.200
AO-7 31 Jul 17:30:51 17:38:05 32° 262° (W) 17:45:23 29.400- 29.500
BEESAT 3 31 Jul 17:49:43 17:53:36 80° 120° (ESE) 17:57:33 437.485
CUBESAT XI-V 31 Jul 17:53:44 17:57:23 23° 95° (E) 18:01:02 437.345
NOAA 18 31 Jul 17:54:54 17:58:57 21° 65° (ENE) 18:02:59 137.9125
Cubesat XI-IV 31 Jul 17:55:10 17:59:00 20° 66° (ENE) 18:02:49 437.490
BRITE-PL 31 Jul 17:57:19 18:00:47 27° 71° (ENE) 18:04:19 437.365/2234.400
MOZHAYETS 4 31 Jul 17:57:47 18:01:51 33° 288° (WNW) 18:05:55
BEESAT 2 31 Jul 18:05:53 18:09:45 59° 116° (ESE) 18:13:40 435.950
CUTE-I 31 Jul 18:16:10 18:20:52 32° 69° (ENE) 18:25:34 437.470
NOAA 15 31 Jul 18:19:38 18:24:36 46° 72° (ENE) 18:29:36 137.62
KKS-1 31 Jul 18:24:46 18:27:57 19° 292° (WNW) 18:31:06 437.445
SO-50 31 Jul 18:26:03 18:27:39 12° 253° (WSW) 18:29:14 436.795
Cosmos 2499 31 Jul 18:32:25 18:35:11 12° 296° (WNW) 18:37:57 435.465 / 435.565
GOMX 1 31 Jul 18:33:47 18:37:26 30° 71° (ENE) 18:41:16 467.674
RS-15 31 Jul 18:38:31 18:46:48 22° 261° (W) 18:54:59 29.354- 29.394
ISS 31 Jul 18:42:00 18:43:22 12° 127° (SE) 18:44:42 145.825
HORYU 2 31 Jul 18:43:39 18:46:44 18° 265° (W) 18:49:51 437.375
PCSat 31 Jul 18:48:54 18:54:17 74° 114° (ESE) 18:59:43 145.827
STARS 31 Jul 18:49:41 18:52:57 20° 292° (WNW) 18:56:12 437.465
PHONESAT 2.4 31 Jul 19:01:07 19:03:57 33° 10° (N) 19:06:46 2401.200-2431.200
AIST 2 31 Jul 19:13:31 19:14:59 12° 108° (ESE) 19:16:26 435.215
CINEMA 3 31 Jul 19:16:42 19:18:08 11° 63° (ENE) 19:19:35 145.822/145.860
LilacSat-2 31 Jul 19:19:37 19:23:23 49° 261° (W) 19:27:10 437.200
CUBESAT XI-V 31 Jul 19:30:44 19:34:42 29° 289° (WNW) 19:38:40 437.345
YUBILEINY 31 Jul 19:32:22 19:36:53 15° 65° (ENE) 19:41:21 435.215
Cubesat XI-IV 31 Jul 19:33:32 19:38:40 46° 260° (W) 19:43:50 437.490
NOAA 18 31 Jul 19:33:55 19:39:13 46° 260° (W) 19:44:33 137.9125
HO-68 31 Jul 19:34:07 19:40:04 29° 64° (ENE) 19:46:02 435.675
BRITE-PL 31 Jul 19:36:24 19:39:18 18° 266° (W) 19:42:14 437.365/2234.400
DOVE 4 31 Jul 19:38:24 19:42:42 73° 76° (ENE) 19:47:17 437.250
STRAND 1 31 Jul 19:46:11 19:49:54 20° 95° (E) 19:53:36 437.568
BEESAT 2 31 Jul 19:46:34 19:47:57 11° 313° (NW) 19:49:20 435.950
SEEDS 31 Jul 19:50:56 19:52:58 13° 67° (ENE) 19:55:01 437.485
CUTE-I 31 Jul 19:56:18 20:00:50 28° 264° (W) 20:05:24 437.470
NOAA 15 31 Jul 20:01:04 20:04:34 18° 266° (W) 20:08:04 137.62
GOMX 1 31 Jul 20:12:44 20:15:36 18° 267° (W) 20:18:35 467.674
ISS 31 Jul 20:16:17 20:19:26 49° 320° (NW) 20:22:36 145.825
AAUSAT CUBESAT 2 31 Jul 20:16:19 20:18:27 14° 68° (ENE) 20:20:35 437.432
O/OREOS (USA 219) 31 Jul 20:19:16 20:23:43 84° 110° (ESE) 20:28:12 437.305
PCSat 31 Jul 20:35:10 20:38:15 15° 311° (NW) 20:41:21 145.827
PHONESAT 2.4 31 Jul 20:37:31 20:40:35 67° 207° (SSW) 20:43:38 2401.200-2431.200
CANX-2 31 Jul 20:41:48 20:46:06 86° 261° (W) 20:50:22 2200.000
ZACube-1 31 Jul 20:42:07 20:43:47 12° 65° (ENE) 20:45:27 437.345
AIST 2 31 Jul 20:49:00 20:52:58 48° 302° (WNW) 20:57:00 435.215
CINEMA 3 31 Jul 20:50:03 20:54:34 65° 259° (W) 20:59:20 145.822/145.860
UWE-3 31 Jul 20:50:52 20:54:32 24° 69° (ENE) 20:58:15 435.000/436.395/437.385
Cosmos 2491 31 Jul 20:51:48 20:58:56 30° 84° (E) 21:06:05 435.465 / 435.565
CUTE 1.7 + AOD 2 31 Jul 20:54:15 20:58:30 71° 259° (W) 21:02:45 437.475
Oscar 11 31 Jul 21:11:38 21:15:10 25° 70° (ENE) 21:18:42 145.826/435.025
HO-68 31 Jul 21:20:33 21:27:26 48° 260° (W) 21:34:21 435.675
CUBEBUG 2 31 Jul 21:22:42 21:27:18 82° 78° (ENE) 21:32:04 437.445
SEEDS 31 Jul 21:24:15 21:28:16 43° 261° (W) 21:32:18 437.485
STRAND 1 31 Jul 21:24:26 21:29:10 39° 289° (WNW) 21:33:52 437.568
YUBILEINY 31 Jul 21:26:05 21:34:58 85° 84° (E) 21:43:45 435.215
COMPASS 1 31 Jul 21:26:14 21:30:22 61° 260° (W) 21:34:30 437.405
DELFI C3 31 Jul 21:30:52 21:33:12 15° 69° (ENE) 21:35:34 145.870
AUBIESAT-1 31 Jul 21:32:29 21:33:53 12° 59° (ENE) 21:35:19 437.475
PRISM 31 Jul 21:44:49 21:48:44 42° 99° (E) 21:52:39 437.425
AAUSAT CUBESAT 2 31 Jul 21:49:40 21:53:33 39° 261° (W) 21:57:28 437.432
Cosmos 2504 31 Jul 21:52:08 21:59:31 40° 76° (ENE) 22:06:21 435.465 / 435.565
FUNcube-1 31 Jul 22:11:05 22:15:36 72° 258° (WSW) 22:20:11 145.935
ZACube-1 31 Jul 22:15:00 22:19:29 60° 260° (W) 22:24:02 437.345
AO-85 31 Jul 22:18:55 22:23:05 47° 57° (ENE) 22:26:56 145.980
UWE-3 31 Jul 22:26:51 22:30:49 28° 264° (W) 22:34:51 435.000/436.395/437.385
TIGRISAT 31 Jul 22:33:31 22:34:32 11° 91° (E) 22:35:33 435.000
M-CUBED/EXP-1 PRIME 31 Jul 22:42:21 22:46:09 80° 252° (WSW) 22:50:20 437.505
HUMSAT D 31 Jul 22:44:27 22:48:40 59° 76° (ENE) 22:52:55 437.325/437.525
Cosmos 2491 31 Jul 22:46:53 22:55:16 51° 281° (WNW) 23:03:42 435.465 / 435.565
Oscar 11 31 Jul 22:47:42 22:51:11 23° 264° (W) 22:54:42 145.826/435.025
UNISAT 6 31 Jul 22:49:41 22:52:54 19° 94° (E) 22:56:03 437.425
